2023/09/12 00:00:00,18.2,20.7
2023/09/12 00:10:00,18.3,21.1
2023/09/12 00:20:00,18.4,20.8
2023/09/12 00:30:00,18.5,20.8
2023/09/12 00:40:00,18.6,20.8
2023/09/12 00:50:00,18.5,20.6
2023/09/12 01:00:00,18.5,20.6
2023/09/12 01:10:00,18.6,20.7
2023/09/12 01:20:00,18.7,20.7
2023/09/12 01:30:00,18.7,20.6
2023/09/12 01:40:00,18.8,20.6
2023/09/12 01:50:00,18.6,20.6
2023/09/12 02:00:00,18.7,20.6
2023/09/12 02:10:00,18.9,20.4
2023/09/12 02:20:00,18.9,20.7
2023/09/12 02:30:00,18.5,20.6
2023/09/12 02:40:00,18.5,20.5
2023/09/12 02:50:00,19.4,20.5
2023/09/12 03:00:00,19.4,20.5
2023/09/12 03:10:00,19.3,20.4
2023/09/12 03:20:00,19.3,20.3
2023/09/12 03:30:00,19.2,20.2
2023/09/12 03:40:00,19.1,20.2
2023/09/12 03:50:00,18.9,20.2
2023/09/12 04:00:00,18.8,20.0
2023/09/12 04:10:00,18.9,19.9
2023/09/12 04:20:00,18.9,20.0
2023/09/12 04:30:00,19.0,19.7
2023/09/12 04:40:00,18.6,19.8
2023/09/12 04:50:00,17.4,19.8
2023/09/12 05:00:00,19.0,19.6
2023/09/12 05:10:00,19.5,19.6
2023/09/12 05:20:00,19.7,19.7
2023/09/12 05:30:00,19.8,19.6
2023/09/12 05:40:00,20.3,19.5
2023/09/12 05:50:00,20.3,19.4
2023/09/12 06:00:00,20.3,19.4
2023/09/12 06:10:00,20.2,19.4
2023/09/12 06:20:00,20.2,19.4
2023/09/12 06:30:00,20.1,19.5
2023/09/12 06:40:00,20.1,19.7
2023/09/12 06:50:00,20.2,19.5
2023/09/12 07:00:00,19.9,19.7
2023/09/12 07:10:00,20.0,19.7
2023/09/12 07:20:00,19.9,19.9
2023/09/12 07:30:00,19.9,20.1
2023/09/12 07:40:00,19.9,20.9
2023/09/12 07:50:00,20.1,21.2
2023/09/12 08:00:00,20.1,21.8
2023/09/12 08:10:00,20.2,22.1
2023/09/12 08:20:00,20.2,22.6
2023/09/12 08:30:00,19.9,23.1
2023/09/12 08:40:00,19.8,23.2
2023/09/12 08:50:00,19.7,23.6
2023/09/12 09:00:00,19.7,24.1
2023/09/12 09:10:00,19.7,24.9
2023/09/12 09:20:00,19.7,25.6
2023/09/12 09:30:00,19.6,26.3
2023/09/12 09:40:00,20.2,27.0
2023/09/12 09:50:00,20.2,27.7
2023/09/12 10:00:00,20.5,27.2
2023/09/12 10:10:00,20.6,27.9
2023/09/12 10:20:00,20.7,28.8
2023/09/12 10:30:00,20.8,28.9
2023/09/12 10:40:00,20.3,29.6
2023/09/12 10:50:00,20.8,29.2
2023/09/12 11:00:00,20.8,29.3
2023/09/12 11:10:00,21.0,28.6
2023/09/12 11:20:00,21.2,28.8
2023/09/12 11:30:00,21.5,28.3
2023/09/12 11:40:00,21.5,28.6
2023/09/12 11:50:00,21.7,28.3
2023/09/12 12:00:00,21.7,28.0
2023/09/12 12:10:00,21.6,29.6
2023/09/12 12:20:00,20.8,29.8
2023/09/12 12:30:00,19.4,28.7
2023/09/12 12:40:00,18.0,28.6
2023/09/12 12:50:00,16.2,28.2
2023/09/12 13:00:00,18.9,28.7
2023/09/12 13:10:00,20.7,29.8
2023/09/12 13:20:00,20.8,31.3
2023/09/12 13:30:00,21.8,30.9
2023/09/12 13:40:00,21.0,31.5
2023/09/12 13:50:00,18.2,32.5
2023/09/12 14:00:00,14.4,30.7
2023/09/12 14:10:00,21.2,29.6
2023/09/12 14:20:00,20.9,28.9
2023/09/12 14:30:00,22.0,28.6
2023/09/12 14:40:00,21.8,28.2
2023/09/12 14:50:00,21.0,28.6
2023/09/12 15:00:00,22.4,27.6
2023/09/12 15:10:00,22.3,27.0
2023/09/12 15:20:00,14.9,25.2
2023/09/12 15:30:00,14.4,24.8
2023/09/12 15:40:00,14.4,24.9
2023/09/12 15:50:00,16.0,24.4
2023/09/12 16:00:00,20.2,24.3
2023/09/12 16:10:00,16.9,24.4
2023/09/12 16:20:00,10.5,24.5
2023/09/12 16:30:00,---,24.5
2023/09/12 16:40:00,21.9,24.6
2023/09/12 16:50:00,19.3,24.4
2023/09/12 17:00:00,22.0,24.3
2023/09/12 17:10:00,22.1,24.5
2023/09/12 17:20:00,22.2,24.0
2023/09/12 17:30:00,22.0,24.1
2023/09/12 17:40:00,21.9,24.2
2023/09/12 17:50:00,21.7,23.7
2023/09/12 18:00:00,21.6,23.1
2023/09/12 18:10:00,21.5,22.9
2023/09/12 18:20:00,21.2,22.8
2023/09/12 18:30:00,20.8,22.9
2023/09/12 18:40:00,20.6,22.7
2023/09/12 18:50:00,20.1,22.5
2023/09/12 19:00:00,18.7,22.3
2023/09/12 19:10:00,12.3,22.3
2023/09/12 19:20:00, 2.1,22.1
2023/09/12 19:30:00, 0.0,22.0
2023/09/12 19:40:00, 0.0,21.8
2023/09/12 19:50:00, 0.0,21.8
2023/09/12 20:00:00, 0.0,21.6
2023/09/12 20:10:00, 0.0,21.4
2023/09/12 20:20:00, 0.0,21.4
2023/09/12 20:30:00, 0.0,21.4
2023/09/12 20:40:00, 0.0,21.4
2023/09/12 20:50:00, 0.0,21.3
2023/09/12 21:00:00, 0.0,21.3
2023/09/12 21:10:00, 0.0,21.2
2023/09/12 21:20:00, 0.0,21.0
2023/09/12 21:30:00, 0.0,21.1
2023/09/12 21:40:00, 0.0,20.9
2023/09/12 21:50:00, 0.0,20.8
2023/09/12 22:00:00, 0.0,20.6
2023/09/12 22:10:00, 0.0,20.8
2023/09/12 22:20:00, 0.0,20.7
2023/09/12 22:30:00, 0.0,20.7
2023/09/12 22:40:00, 0.0,20.5
2023/09/12 22:50:00, 0.0,20.5
2023/09/12 23:00:00, 0.0,20.1
2023/09/12 23:10:00, 0.0,20.5
2023/09/12 23:20:00, 0.0,20.5
2023/09/12 23:30:00, 0.0,20.5
2023/09/12 23:40:00, 0.0,20.3
2023/09/12 23:50:00, 0.0,20.2
